owner,sensor,date,latitude,longitude,vertical_datum,sea_water_temperature,qcFlag 
WAVCIS,ioos:station:WAVCIS:CSI16:1,2011-03-01T00:00:00Z,29.4012,-89.0355,10.0,18.882,11111222 
WAVCIS,ioos:station:WAVCIS:CSI16:1,2011-03-01T00:15:00Z,29.4012,-89.0355,10.0,18.37,11111222 
WAVCIS,ioos:station:WAVCIS:CSI16:1,2011-03-01T00:30:00Z,29.4012,-89.0355,10.0,18.723,11111222 
WAVCIS,ioos:station:WAVCIS:CSI16:1,2011-03-01T00:45:00Z,29.4012,-89.0355,10.0,18.569,11111222 
WAVCIS,ioos:station:WAVCIS:CSI16:1,2011-03-01T01:00:00Z,29.4012,-89.0355,10.0,18.81,11111222 
WAVCIS,ioos:station:WAVCIS:CSI16:1,2011-03-01T01:15:00Z,29.4012,-89.0355,10.0,18.774,11111222 
WAVCIS,ioos:station:WAVCIS:CSI16:1,2011-03-01T01:30:00Z,29.4012,-89.0355,10.0,18.791,11111222 
WAVCIS,ioos:station:WAVCIS:CSI16:1,2011-03-01T01:45:00Z,29.4012,-89.0355,10.0,18.768,11111222 
WAVCIS,ioos:station:WAVCIS:CSI16:1,2011-03-01T02:00:00Z,29.4012,-89.0355,10.0,18.736,11111222 
WAVCIS,ioos:station:WAVCIS:CSI16:1,2011-03-01T02:15:00Z,29.4012,-89.0355,10.0,18.781,11111222 
WAVCIS,ioos:station:WAVCIS:CSI16:1,2011-03-01T02:30:00Z,29.4012,-89.0355,10.0,18.717,11111222 
WAVCIS,ioos:station:WAVCIS:CSI16:1,2011-03-01T02:45:00Z,29.4012,-89.0355,10.0,18.685,11111222 
WAVCIS,ioos:station:WAVCIS:CSI16:1,2011-03-01T03:00:00Z,29.4012,-89.0355,10.0,18.675,11111222 
WAVCIS,ioos:station:WAVCIS:CSI16:1,2011-03-01T03:15:00Z,29.4012,-89.0355,10.0,18.676,11111222 
WAVCIS,ioos:station:WAVCIS:CSI16:1,2011-03-01T03:30:00Z,29.4012,-89.0355,10.0,18.669,11111222 
WAVCIS,ioos:station:WAVCIS:CSI16:1,2011-03-01T03:45:00Z,29.4012,-89.0355,10.0,18.651,11111222 
WAVCIS,ioos:station:WAVCIS:CSI16:1,2011-03-01T04:00:00Z,29.4012,-89.0355,10.0,18.623,11111222 
WAVCIS,ioos:station:WAVCIS:CSI16:1,2011-03-01T04:15:00Z,29.4012,-89.0355,10.0,18.611,11111222 
WAVCIS,ioos:station:WAVCIS:CSI16:1,2011-03-01T04:30:00Z,29.4012,-89.0355,10.0,18.596,11111222 
WAVCIS,ioos:station:WAVCIS:CSI16:1,2011-03-01T04:45:00Z,29.4012,-89.0355,10.0,18.58,11111222 
WAVCIS,ioos:station:WAVCIS:CSI16:1,2011-03-01T05:00:00Z,29.4012,-89.0355,10.0,18.548,11111222 
WAVCIS,ioos:station:WAVCIS:CSI16:1,2011-03-01T05:15:00Z,29.4012,-89.0355,10.0,18.514,11111222 
WAVCIS,ioos:station:WAVCIS:CSI16:1,2011-03-01T05:30:00Z,29.4012,-89.0355,10.0,18.483,11111222 
WAVCIS,ioos:station:WAVCIS:CSI16:1,2011-03-01T05:45:00Z,29.4012,-89.0355,10.0,18.444,11111222 
WAVCIS,ioos:station:WAVCIS:CSI16:1,2011-03-01T06:00:00Z,29.4012,-89.0355,10.0,18.365,11111222 
WAVCIS,ioos:station:WAVCIS:CSI16:1,2011-03-01T06:15:00Z,29.4012,-89.0355,10.0,18.116,11111222 
WAVCIS,ioos:station:WAVCIS:CSI16:1,2011-03-01T06:30:00Z,29.4012,-89.0355,10.0,17.783,11111222 
WAVCIS,ioos:station:WAVCIS:CSI16:1,2011-03-01T06:45:00Z,29.4012,-89.0355,10.0,17.574,11111222 
WAVCIS,ioos:station:WAVCIS:CSI16:1,2011-03-01T07:00:00Z,29.4012,-89.0355,10.0,17.361,11111222 
WAVCIS,ioos:station:WAVCIS:CSI16:1,2011-03-01T07:15:00Z,29.4012,-89.0355,10.0,17.13,11111222 
WAVCIS,ioos:station:WAVCIS:CSI16:1,2011-03-01T07:30:00Z,29.4012,-89.0355,10.0,17.003,11111222 
WAVCIS,ioos:station:WAVCIS:CSI16:1,2011-03-01T07:45:00Z,29.4012,-89.0355,10.0,16.799,11111222 
WAVCIS,ioos:station:WAVCIS:CSI16:1,2011-03-01T08:00:00Z,29.4012,-89.0355,10.0,16.676,11111222 
WAVCIS,ioos:station:WAVCIS:CSI16:1,2011-03-01T08:15:00Z,29.4012,-89.0355,10.0,16.873,11111222 
WAVCIS,ioos:station:WAVCIS:CSI16:1,2011-03-01T08:30:00Z,29.4012,-89.0355,10.0,16.685,11111222 
WAVCIS,ioos:station:WAVCIS:CSI16:1,2011-03-01T08:45:00Z,29.4012,-89.0355,10.0,17.132,11111222 
WAVCIS,ioos:station:WAVCIS:CSI16:1,2011-03-01T09:00:00Z,29.4012,-89.0355,10.0,17.274,11111222 
WAVCIS,ioos:station:WAVCIS:CSI16:1,2011-03-01T09:15:00Z,29.4012,-89.0355,10.0,17.118,11111222 
WAVCIS,ioos:station:WAVCIS:CSI16:1,2011-03-01T09:30:00Z,29.4012,-89.0355,10.0,17.154,11111222 
WAVCIS,ioos:station:WAVCIS:CSI16:1,2011-03-01T09:45:00Z,29.4012,-89.0355,10.0,17.074,11111222 
WAVCIS,ioos:station:WAVCIS:CSI16:1,2011-03-01T10:00:00Z,29.4012,-89.0355,10.0,17.101,11111222 
WAVCIS,ioos:station:WAVCIS:CSI16:1,2011-03-01T10:15:00Z,29.4012,-89.0355,10.0,17.026,11111222 
WAVCIS,ioos:station:WAVCIS:CSI16:1,2011-03-01T10:30:00Z,29.4012,-89.0355,10.0,17.03,11111222 
WAVCIS,ioos:station:WAVCIS:CSI16:1,2011-03-01T10:45:00Z,29.4012,-89.0355,10.0,17.559,11111222 
WAVCIS,ioos:station:WAVCIS:CSI16:1,2011-03-01T11:00:00Z,29.4012,-89.0355,10.0,17.31,11111222 
WAVCIS,ioos:station:WAVCIS:CSI16:1,2011-03-01T11:15:00Z,29.4012,-89.0355,10.0,17.236,11111222 
WAVCIS,ioos:station:WAVCIS:CSI16:1,2011-03-01T11:30:00Z,29.4012,-89.0355,10.0,17.245,11111222 
WAVCIS,ioos:station:WAVCIS:CSI16:1,2011-03-01T11:45:00Z,29.4012,-89.0355,10.0,16.998,11111222 
WAVCIS,ioos:station:WAVCIS:CSI16:1,2011-03-01T12:00:00Z,29.4012,-89.0355,10.0,16.667,11111222 
WAVCIS,ioos:station:WAVCIS:CSI16:1,2011-03-01T12:15:00Z,29.4012,-89.0355,10.0,16.336,11111222 
WAVCIS,ioos:station:WAVCIS:CSI16:1,2011-03-01T12:30:00Z,29.4012,-89.0355,10.0,15.955,11111222 
WAVCIS,ioos:station:WAVCIS:CSI16:1,2011-03-01T12:45:00Z,29.4012,-89.0355,10.0,15.691,11111222 
WAVCIS,ioos:station:WAVCIS:CSI16:1,2011-03-01T13:00:00Z,29.4012,-89.0355,10.0,15.402,11111222 
WAVCIS,ioos:station:WAVCIS:CSI16:1,2011-03-01T13:15:00Z,29.4012,-89.0355,10.0,15.839,11111222 
WAVCIS,ioos:station:WAVCIS:CSI16:1,2011-03-01T13:30:00Z,29.4012,-89.0355,10.0,16.135,11111222 
WAVCIS,ioos:station:WAVCIS:CSI16:1,2011-03-01T13:45:00Z,29.4012,-89.0355,10.0,15.913,11111222 
WAVCIS,ioos:station:WAVCIS:CSI16:1,2011-03-01T14:00:00Z,29.4012,-89.0355,10.0,15.94,11111222 
WAVCIS,ioos:station:WAVCIS:CSI16:1,2011-03-01T14:15:00Z,29.4012,-89.0355,10.0,15.822,11111222 
WAVCIS,ioos:station:WAVCIS:CSI16:1,2011-03-01T14:30:00Z,29.4012,-89.0355,10.0,15.872,11111222 
WAVCIS,ioos:station:WAVCIS:CSI16:1,2011-03-01T14:45:00Z,29.4012,-89.0355,10.0,15.834,11111222 
WAVCIS,ioos:station:WAVCIS:CSI16:1,2011-03-01T15:00:00Z,29.4012,-89.0355,10.0,16.938,11111222 
WAVCIS,ioos:station:WAVCIS:CSI16:1,2011-03-01T15:15:00Z,29.4012,-89.0355,10.0,17.187,11111222 
WAVCIS,ioos:station:WAVCIS:CSI16:1,2011-03-01T15:30:00Z,29.4012,-89.0355,10.0,17.375,11111222 
WAVCIS,ioos:station:WAVCIS:CSI16:1,2011-03-01T15:45:00Z,29.4012,-89.0355,10.0,17.229,11111222 
WAVCIS,ioos:station:WAVCIS:CSI16:1,2011-03-01T16:00:00Z,29.4012,-89.0355,10.0,17.345,11111222 
WAVCIS,ioos:station:WAVCIS:CSI16:1,2011-03-01T16:15:00Z,29.4012,-89.0355,10.0,17.328,11111222 
WAVCIS,ioos:station:WAVCIS:CSI16:1,2011-03-01T16:30:00Z,29.4012,-89.0355,10.0,17.202,11111222 
WAVCIS,ioos:station:WAVCIS:CSI16:1,2011-03-01T16:45:00Z,29.4012,-89.0355,10.0,17.27,11111222 
WAVCIS,ioos:station:WAVCIS:CSI16:1,2011-03-01T17:00:00Z,29.4012,-89.0355,10.0,17.357,11111222 
WAVCIS,ioos:station:WAVCIS:CSI16:1,2011-03-01T17:15:00Z,29.4012,-89.0355,10.0,17.307,11111222 
WAVCIS,ioos:station:WAVCIS:CSI16:1,2011-03-01T17:30:00Z,29.4012,-89.0355,10.0,17.746,11111222 
WAVCIS,ioos:station:WAVCIS:CSI16:1,2011-03-01T17:45:00Z,29.4012,-89.0355,10.0,17.961,11111222 
WAVCIS,ioos:station:WAVCIS:CSI16:1,2011-03-01T18:00:00Z,29.4012,-89.0355,10.0,18.149,11111222 
WAVCIS,ioos:station:WAVCIS:CSI16:1,2011-03-01T18:15:00Z,29.4012,-89.0355,10.0,18.168,11111222 
WAVCIS,ioos:station:WAVCIS:CSI16:1,2011-03-01T18:30:00Z,29.4012,-89.0355,10.0,18.331,11111222 
WAVCIS,ioos:station:WAVCIS:CSI16:1,2011-03-01T18:45:00Z,29.4012,-89.0355,10.0,18.54,11111222 
WAVCIS,ioos:station:WAVCIS:CSI16:1,2011-03-01T19:00:00Z,29.4012,-89.0355,10.0,18.597,11111222 
WAVCIS,ioos:station:WAVCIS:CSI16:1,2011-03-01T19:15:00Z,29.4012,-89.0355,10.0,18.738,11111222 
WAVCIS,ioos:station:WAVCIS:CSI16:1,2011-03-01T19:30:00Z,29.4012,-89.0355,10.0,18.626,11111222 
WAVCIS,ioos:station:WAVCIS:CSI16:1,2011-03-01T19:45:00Z,29.4012,-89.0355,10.0,18.795,11111222 
WAVCIS,ioos:station:WAVCIS:CSI16:1,2011-03-01T20:00:00Z,29.4012,-89.0355,10.0,18.905,11111222 
WAVCIS,ioos:station:WAVCIS:CSI16:1,2011-03-01T20:15:00Z,29.4012,-89.0355,10.0,18.92,11111222 
WAVCIS,ioos:station:WAVCIS:CSI16:1,2011-03-01T20:30:00Z,29.4012,-89.0355,10.0,19.021,11111222 
WAVCIS,ioos:station:WAVCIS:CSI16:1,2011-03-01T20:45:00Z,29.4012,-89.0355,10.0,18.985,11111222 
WAVCIS,ioos:station:WAVCIS:CSI16:1,2011-03-01T21:00:00Z,29.4012,-89.0355,10.0,19.099,11111222 
WAVCIS,ioos:station:WAVCIS:CSI16:1,2011-03-01T21:15:00Z,29.4012,-89.0355,10.0,19.345,11111222 
WAVCIS,ioos:station:WAVCIS:CSI16:1,2011-03-01T21:30:00Z,29.4012,-89.0355,10.0,19.346,11111222 
WAVCIS,ioos:station:WAVCIS:CSI16:1,2011-03-01T21:45:00Z,29.4012,-89.0355,10.0,19.361,11111222 
WAVCIS,ioos:station:WAVCIS:CSI16:1,2011-03-01T22:00:00Z,29.4012,-89.0355,10.0,19.24,11111222 
WAVCIS,ioos:station:WAVCIS:CSI16:1,2011-03-01T22:15:00Z,29.4012,-89.0355,10.0,19.301,11111222 
WAVCIS,ioos:station:WAVCIS:CSI16:1,2011-03-01T22:30:00Z,29.4012,-89.0355,10.0,19.26,11111222 
WAVCIS,ioos:station:WAVCIS:CSI16:1,2011-03-01T22:45:00Z,29.4012,-89.0355,10.0,19.297,11111222 
WAVCIS,ioos:station:WAVCIS:CSI16:1,2011-03-01T23:00:00Z,29.4012,-89.0355,10.0,19.231,11111222 
WAVCIS,ioos:station:WAVCIS:CSI16:1,2011-03-01T23:15:00Z,29.4012,-89.0355,10.0,19.106,11111222 
WAVCIS,ioos:station:WAVCIS:CSI16:1,2011-03-01T23:30:00Z,29.4012,-89.0355,10.0,19.089,11111222 
WAVCIS,ioos:station:WAVCIS:CSI16:1,2011-03-01T23:45:00Z,29.4012,-89.0355,10.0,19.077,11111222 
WAVCIS,ioos:station:WAVCIS:CSI16:1,2011-03-02T00:00:00Z,29.4012,-89.0355,10.0,19.061,11111222 
WAVCIS,ioos:station:WAVCIS:CSI16:1,2011-03-02T00:15:00Z,29.4012,-89.0355,10.0,19.086,11111222 
WAVCIS,ioos:station:WAVCIS:CSI16:1,2011-03-02T00:30:00Z,29.4012,-89.0355,10.0,19.071,11111222 
WAVCIS,ioos:station:WAVCIS:CSI16:1,2011-03-02T00:45:00Z,29.4012,-89.0355,10.0,19.003,11111222 
WAVCIS,ioos:station:WAVCIS:CSI16:1,2011-03-02T01:00:00Z,29.4012,-89.0355,10.0,18.99,11111222 
WAVCIS,ioos:station:WAVCIS:CSI16:1,2011-03-02T01:15:00Z,29.4012,-89.0355,10.0,18.899,11111222 
WAVCIS,ioos:station:WAVCIS:CSI16:1,2011-03-02T01:30:00Z,29.4012,-89.0355,10.0,18.907,11111222 
WAVCIS,ioos:station:WAVCIS:CSI16:1,2011-03-02T01:45:00Z,29.4012,-89.0355,10.0,18.881,11111222 
WAVCIS,ioos:station:WAVCIS:CSI16:1,2011-03-02T02:00:00Z,29.4012,-89.0355,10.0,18.841,11111222 
WAVCIS,ioos:station:WAVCIS:CSI16:1,2011-03-02T02:15:00Z,29.4012,-89.0355,10.0,18.85,11111222 
WAVCIS,ioos:station:WAVCIS:CSI16:1,2011-03-02T02:30:00Z,29.4012,-89.0355,10.0,18.847,11111222 
WAVCIS,ioos:station:WAVCIS:CSI16:1,2011-03-02T02:45:00Z,29.4012,-89.0355,10.0,18.899,11111222 
WAVCIS,ioos:station:WAVCIS:CSI16:1,2011-03-02T03:00:00Z,29.4012,-89.0355,10.0,18.958,11111222 
WAVCIS,ioos:station:WAVCIS:CSI16:1,2011-03-02T03:15:00Z,29.4012,-89.0355,10.0,19.013,11111222 
WAVCIS,ioos:station:WAVCIS:CSI16:1,2011-03-02T03:30:00Z,29.4012,-89.0355,10.0,19.02,11111222 
WAVCIS,ioos:station:WAVCIS:CSI16:1,2011-03-02T03:45:00Z,29.4012,-89.0355,10.0,19.053,11111222 
WAVCIS,ioos:station:WAVCIS:CSI16:1,2011-03-02T04:00:00Z,29.4012,-89.0355,10.0,19.087,11111222 
WAVCIS,ioos:station:WAVCIS:CSI16:1,2011-03-02T04:15:00Z,29.4012,-89.0355,10.0,19.086,11111222 
WAVCIS,ioos:station:WAVCIS:CSI16:1,2011-03-02T04:30:00Z,29.4012,-89.0355,10.0,19.099,11111222 
WAVCIS,ioos:station:WAVCIS:CSI16:1,2011-03-02T04:45:00Z,29.4012,-89.0355,10.0,19.097,11111222 
WAVCIS,ioos:station:WAVCIS:CSI16:1,2011-03-02T05:00:00Z,29.4012,-89.0355,10.0,19.086,11111222 
WAVCIS,ioos:station:WAVCIS:CSI16:1,2011-03-02T05:15:00Z,29.4012,-89.0355,10.0,19.075,11111222 
WAVCIS,ioos:station:WAVCIS:CSI16:1,2011-03-02T05:30:00Z,29.4012,-89.0355,10.0,19.073,11111222 
WAVCIS,ioos:station:WAVCIS:CSI16:1,2011-03-02T05:45:00Z,29.4012,-89.0355,10.0,19.068,11111222 
WAVCIS,ioos:station:WAVCIS:CSI16:1,2011-03-02T06:00:00Z,29.4012,-89.0355,10.0,19.063,11111222 
WAVCIS,ioos:station:WAVCIS:CSI16:1,2011-03-02T06:15:00Z,29.4012,-89.0355,10.0,19.052,11111222 
WAVCIS,ioos:station:WAVCIS:CSI16:1,2011-03-02T06:30:00Z,29.4012,-89.0355,10.0,19.042,11111222 
WAVCIS,ioos:station:WAVCIS:CSI16:1,2011-03-02T06:45:00Z,29.4012,-89.0355,10.0,19.009,11111222 
WAVCIS,ioos:station:WAVCIS:CSI16:1,2011-03-02T07:00:00Z,29.4012,-89.0355,10.0,18.963,11111222 
WAVCIS,ioos:station:WAVCIS:CSI16:1,2011-03-02T07:15:00Z,29.4012,-89.0355,10.0,18.951,11111222 
WAVCIS,ioos:station:WAVCIS:CSI16:1,2011-03-02T07:30:00Z,29.4012,-89.0355,10.0,18.935,11111222 
WAVCIS,ioos:station:WAVCIS:CSI16:1,2011-03-02T07:45:00Z,29.4012,-89.0355,10.0,18.924,11111222 
WAVCIS,ioos:station:WAVCIS:CSI16:1,2011-03-02T08:00:00Z,29.4012,-89.0355,10.0,18.828,11111222 
WAVCIS,ioos:station:WAVCIS:CSI16:1,2011-03-02T08:15:00Z,29.4012,-89.0355,10.0,18.785,11111222 
WAVCIS,ioos:station:WAVCIS:CSI16:1,2011-03-02T08:30:00Z,29.4012,-89.0355,10.0,18.74,11111222 
WAVCIS,ioos:station:WAVCIS:CSI16:1,2011-03-02T08:45:00Z,29.4012,-89.0355,10.0,18.691,11111222 
WAVCIS,ioos:station:WAVCIS:CSI16:1,2011-03-02T09:00:00Z,29.4012,-89.0355,10.0,18.665,11111222 
WAVCIS,ioos:station:WAVCIS:CSI16:1,2011-03-02T09:15:00Z,29.4012,-89.0355,10.0,18.597,11111222 
WAVCIS,ioos:station:WAVCIS:CSI16:1,2011-03-02T09:30:00Z,29.4012,-89.0355,10.0,18.553,11111222 
WAVCIS,ioos:station:WAVCIS:CSI16:1,2011-03-02T09:45:00Z,29.4012,-89.0355,10.0,18.536,11111222 
WAVCIS,ioos:station:WAVCIS:CSI16:1,2011-03-02T10:00:00Z,29.4012,-89.0355,10.0,18.525,11111222 
WAVCIS,ioos:station:WAVCIS:CSI16:1,2011-03-02T10:15:00Z,29.4012,-89.0355,10.0,18.525,11111222 
WAVCIS,ioos:station:WAVCIS:CSI16:1,2011-03-02T10:30:00Z,29.4012,-89.0355,10.0,18.523,11111222 
WAVCIS,ioos:station:WAVCIS:CSI16:1,2011-03-02T10:45:00Z,29.4012,-89.0355,10.0,18.505,11111222 
WAVCIS,ioos:station:WAVCIS:CSI16:1,2011-03-02T11:00:00Z,29.4012,-89.0355,10.0,18.515,11111222 
WAVCIS,ioos:station:WAVCIS:CSI16:1,2011-03-02T11:15:00Z,29.4012,-89.0355,10.0,18.505,11111222 
WAVCIS,ioos:station:WAVCIS:CSI16:1,2011-03-02T11:30:00Z,29.4012,-89.0355,10.0,18.479,11111222 
WAVCIS,ioos:station:WAVCIS:CSI16:1,2011-03-02T11:45:00Z,29.4012,-89.0355,10.0,18.441,11111222 
WAVCIS,ioos:station:WAVCIS:CSI16:1,2011-03-02T12:00:00Z,29.4012,-89.0355,10.0,18.41,11111222 
WAVCIS,ioos:station:WAVCIS:CSI16:1,2011-03-02T12:15:00Z,29.4012,-89.0355,10.0,18.416,11111222 
WAVCIS,ioos:station:WAVCIS:CSI16:1,2011-03-02T12:30:00Z,29.4012,-89.0355,10.0,18.43,11111222 
WAVCIS,ioos:station:WAVCIS:CSI16:1,2011-03-02T12:45:00Z,29.4012,-89.0355,10.0,18.449,11111222 
WAVCIS,ioos:station:WAVCIS:CSI16:1,2011-03-02T13:00:00Z,29.4012,-89.0355,10.0,18.449,11111222 
WAVCIS,ioos:station:WAVCIS:CSI16:1,2011-03-02T13:15:00Z,29.4012,-89.0355,10.0,18.434,11111222 
WAVCIS,ioos:station:WAVCIS:CSI16:1,2011-03-02T13:30:00Z,29.4012,-89.0355,10.0,18.394,11111222 
WAVCIS,ioos:station:WAVCIS:CSI16:1,2011-03-02T13:45:00Z,29.4012,-89.0355,10.0,18.373,11111222 
WAVCIS,ioos:station:WAVCIS:CSI16:1,2011-03-02T14:00:00Z,29.4012,-89.0355,10.0,18.353,11111222 
WAVCIS,ioos:station:WAVCIS:CSI16:1,2011-03-02T14:15:00Z,29.4012,-89.0355,10.0,18.323,11111222 
WAVCIS,ioos:station:WAVCIS:CSI16:1,2011-03-02T14:30:00Z,29.4012,-89.0355,10.0,18.273,11111222 
WAVCIS,ioos:station:WAVCIS:CSI16:1,2011-03-02T14:45:00Z,29.4012,-89.0355,10.0,18.262,11111222 
WAVCIS,ioos:station:WAVCIS:CSI16:1,2011-03-02T15:00:00Z,29.4012,-89.0355,10.0,18.26,11111222 
WAVCIS,ioos:station:WAVCIS:CSI16:1,2011-03-02T15:15:00Z,29.4012,-89.0355,10.0,18.308,11111222 
WAVCIS,ioos:station:WAVCIS:CSI16:1,2011-03-02T15:30:00Z,29.4012,-89.0355,10.0,18.275,11111222 
WAVCIS,ioos:station:WAVCIS:CSI16:1,2011-03-02T15:45:00Z,29.4012,-89.0355,10.0,18.34,11111222 
WAVCIS,ioos:station:WAVCIS:CSI16:1,2011-03-02T16:00:00Z,29.4012,-89.0355,10.0,18.368,11111222 
WAVCIS,ioos:station:WAVCIS:CSI16:1,2011-03-02T16:15:00Z,29.4012,-89.0355,10.0,18.404,11111222 
WAVCIS,ioos:station:WAVCIS:CSI16:1,2011-03-02T16:30:00Z,29.4012,-89.0355,10.0,18.428,11111222 
WAVCIS,ioos:station:WAVCIS:CSI16:1,2011-03-02T16:45:00Z,29.4012,-89.0355,10.0,18.484,11111222 
WAVCIS,ioos:station:WAVCIS:CSI16:1,2011-03-02T17:00:00Z,29.4012,-89.0355,10.0,18.512,11111222 
WAVCIS,ioos:station:WAVCIS:CSI16:1,2011-03-02T17:15:00Z,29.4012,-89.0355,10.0,18.587,11111222 
WAVCIS,ioos:station:WAVCIS:CSI16:1,2011-03-02T17:30:00Z,29.4012,-89.0355,10.0,18.56,11111222 
WAVCIS,ioos:station:WAVCIS:CSI16:1,2011-03-02T17:45:00Z,29.4012,-89.0355,10.0,18.447,11111222 
WAVCIS,ioos:station:WAVCIS:CSI16:1,2011-03-02T18:00:00Z,29.4012,-89.0355,10.0,18.567,11111222 
WAVCIS,ioos:station:WAVCIS:CSI16:1,2011-03-02T18:15:00Z,29.4012,-89.0355,10.0,18.607,11111222 
WAVCIS,ioos:station:WAVCIS:CSI16:1,2011-03-02T18:30:00Z,29.4012,-89.0355,10.0,18.632,11111222 
WAVCIS,ioos:station:WAVCIS:CSI16:1,2011-03-02T18:45:00Z,29.4012,-89.0355,10.0,18.679,11111222 
WAVCIS,ioos:station:WAVCIS:CSI16:1,2011-03-02T19:00:00Z,29.4012,-89.0355,10.0,18.723,11111222 
WAVCIS,ioos:station:WAVCIS:CSI16:1,2011-03-02T19:15:00Z,29.4012,-89.0355,10.0,18.742,11111222 
WAVCIS,ioos:station:WAVCIS:CSI16:1,2011-03-02T19:30:00Z,29.4012,-89.0355,10.0,18.745,11111222 
WAVCIS,ioos:station:WAVCIS:CSI16:1,2011-03-02T19:45:00Z,29.4012,-89.0355,10.0,18.739,11111222 
WAVCIS,ioos:station:WAVCIS:CSI16:1,2011-03-02T20:00:00Z,29.4012,-89.0355,10.0,18.737,11111222 
WAVCIS,ioos:station:WAVCIS:CSI16:1,2011-03-02T20:15:00Z,29.4012,-89.0355,10.0,18.725,11111222 
WAVCIS,ioos:station:WAVCIS:CSI16:1,2011-03-02T20:30:00Z,29.4012,-89.0355,10.0,18.699,11111222 
WAVCIS,ioos:station:WAVCIS:CSI16:1,2011-03-02T20:45:00Z,29.4012,-89.0355,10.0,18.711,11111222 
WAVCIS,ioos:station:WAVCIS:CSI16:1,2011-03-02T21:00:00Z,29.4012,-89.0355,10.0,18.705,11111222 
WAVCIS,ioos:station:WAVCIS:CSI16:1,2011-03-02T21:15:00Z,29.4012,-89.0355,10.0,18.68,11111222 
WAVCIS,ioos:station:WAVCIS:CSI16:1,2011-03-02T21:30:00Z,29.4012,-89.0355,10.0,18.699,11111222 
WAVCIS,ioos:station:WAVCIS:CSI16:1,2011-03-02T21:45:00Z,29.4012,-89.0355,10.0,18.693,11111222 
WAVCIS,ioos:station:WAVCIS:CSI16:1,2011-03-02T22:00:00Z,29.4012,-89.0355,10.0,18.705,11111222 
WAVCIS,ioos:station:WAVCIS:CSI16:1,2011-03-02T22:15:00Z,29.4012,-89.0355,10.0,18.703,11111222 
WAVCIS,ioos:station:WAVCIS:CSI16:1,2011-03-02T22:30:00Z,29.4012,-89.0355,10.0,18.697,11111222 
WAVCIS,ioos:station:WAVCIS:CSI16:1,2011-03-02T22:45:00Z,29.4012,-89.0355,10.0,18.679,11111222 
WAVCIS,ioos:station:WAVCIS:CSI16:1,2011-03-02T23:00:00Z,29.4012,-89.0355,10.0,18.68,11111222 
WAVCIS,ioos:station:WAVCIS:CSI16:1,2011-03-02T23:15:00Z,29.4012,-89.0355,10.0,18.677,11111222 
WAVCIS,ioos:station:WAVCIS:CSI16:1,2011-03-02T23:30:00Z,29.4012,-89.0355,10.0,18.663,11111222 
WAVCIS,ioos:station:WAVCIS:CSI16:1,2011-03-02T23:45:00Z,29.4012,-89.0355,10.0,18.642,11111222 
WAVCIS,ioos:station:WAVCIS:CSI16:1,2011-03-03T00:00:00Z,29.4012,-89.0355,10.0,18.606,11111222 
WAVCIS,ioos:station:WAVCIS:CSI16:1,2011-03-03T00:15:00Z,29.4012,-89.0355,10.0,18.566,11111222 
WAVCIS,ioos:station:WAVCIS:CSI16:1,2011-03-03T00:30:00Z,29.4012,-89.0355,10.0,18.533,11111222 
WAVCIS,ioos:station:WAVCIS:CSI16:1,2011-03-03T00:45:00Z,29.4012,-89.0355,10.0,18.513,11111222 
WAVCIS,ioos:station:WAVCIS:CSI16:1,2011-03-03T01:00:00Z,29.4012,-89.0355,10.0,18.488,11111222 
WAVCIS,ioos:station:WAVCIS:CSI16:1,2011-03-03T01:15:00Z,29.4012,-89.0355,10.0,18.487,11111222 
WAVCIS,ioos:station:WAVCIS:CSI16:1,2011-03-03T01:30:00Z,29.4012,-89.0355,10.0,18.479,11111222 
WAVCIS,ioos:station:WAVCIS:CSI16:1,2011-03-03T01:45:00Z,29.4012,-89.0355,10.0,18.428,11111222 
WAVCIS,ioos:station:WAVCIS:CSI16:1,2011-03-03T02:00:00Z,29.4012,-89.0355,10.0,18.462,11111222 
WAVCIS,ioos:station:WAVCIS:CSI16:1,2011-03-03T02:15:00Z,29.4012,-89.0355,10.0,18.453,11111222 
WAVCIS,ioos:station:WAVCIS:CSI16:1,2011-03-03T02:30:00Z,29.4012,-89.0355,10.0,18.463,11111222 
WAVCIS,ioos:station:WAVCIS:CSI16:1,2011-03-03T02:45:00Z,29.4012,-89.0355,10.0,18.444,11111222 
WAVCIS,ioos:station:WAVCIS:CSI16:1,2011-03-03T03:00:00Z,29.4012,-89.0355,10.0,18.405,11111222 
WAVCIS,ioos:station:WAVCIS:CSI16:1,2011-03-03T03:15:00Z,29.4012,-89.0355,10.0,18.419,11111222 
WAVCIS,ioos:station:WAVCIS:CSI16:1,2011-03-03T03:30:00Z,29.4012,-89.0355,10.0,18.41,11111222 
WAVCIS,ioos:station:WAVCIS:CSI16:1,2011-03-03T03:45:00Z,29.4012,-89.0355,10.0,18.417,11111222 
WAVCIS,ioos:station:WAVCIS:CSI16:1,2011-03-03T04:00:00Z,29.4012,-89.0355,10.0,18.415,11111222 
WAVCIS,ioos:station:WAVCIS:CSI16:1,2011-03-03T04:15:00Z,29.4012,-89.0355,10.0,18.412,11111222 
WAVCIS,ioos:station:WAVCIS:CSI16:1,2011-03-03T04:30:00Z,29.4012,-89.0355,10.0,18.4,11111222 
WAVCIS,ioos:station:WAVCIS:CSI16:1,2011-03-03T04:45:00Z,29.4012,-89.0355,10.0,18.396,11111222 
WAVCIS,ioos:station:WAVCIS:CSI16:1,2011-03-03T05:00:00Z,29.4012,-89.0355,10.0,18.388,11111222 
WAVCIS,ioos:station:WAVCIS:CSI16:1,2011-03-03T05:15:00Z,29.4012,-89.0355,10.0,18.374,11111222 
WAVCIS,ioos:station:WAVCIS:CSI16:1,2011-03-03T05:30:00Z,29.4012,-89.0355,10.0,18.355,11111222 
WAVCIS,ioos:station:WAVCIS:CSI16:1,2011-03-03T05:45:00Z,29.4012,-89.0355,10.0,18.352,11111222 
WAVCIS,ioos:station:WAVCIS:CSI16:1,2011-03-03T06:00:00Z,29.4012,-89.0355,10.0,18.341,11111222 
WAVCIS,ioos:station:WAVCIS:CSI16:1,2011-03-03T06:15:00Z,29.4012,-89.0355,10.0,18.325,11111222 
WAVCIS,ioos:station:WAVCIS:CSI16:1,2011-03-03T06:30:00Z,29.4012,-89.0355,10.0,18.313,11111222 
WAVCIS,ioos:station:WAVCIS:CSI16:1,2011-03-03T06:45:00Z,29.4012,-89.0355,10.0,18.313,11111222 
WAVCIS,ioos:station:WAVCIS:CSI16:1,2011-03-03T07:00:00Z,29.4012,-89.0355,10.0,18.307,11111222 
WAVCIS,ioos:station:WAVCIS:CSI16:1,2011-03-03T07:15:00Z,29.4012,-89.0355,10.0,18.291,11111222 
WAVCIS,ioos:station:WAVCIS:CSI16:1,2011-03-03T07:30:00Z,29.4012,-89.0355,10.0,18.257,11111222 
WAVCIS,ioos:station:WAVCIS:CSI16:1,2011-03-03T07:45:00Z,29.4012,-89.0355,10.0,18.242,11111222 
WAVCIS,ioos:station:WAVCIS:CSI16:1,2011-03-03T08:00:00Z,29.4012,-89.0355,10.0,18.236,11111222 
WAVCIS,ioos:station:WAVCIS:CSI16:1,2011-03-03T08:15:00Z,29.4012,-89.0355,10.0,18.253,11111222 
WAVCIS,ioos:station:WAVCIS:CSI16:1,2011-03-03T08:30:00Z,29.4012,-89.0355,10.0,18.229,11111222 
WAVCIS,ioos:station:WAVCIS:CSI16:1,2011-03-03T08:45:00Z,29.4012,-89.0355,10.0,18.227,11111222 
WAVCIS,ioos:station:WAVCIS:CSI16:1,2011-03-03T09:00:00Z,29.4012,-89.0355,10.0,18.222,11111222 
WAVCIS,ioos:station:WAVCIS:CSI16:1,2011-03-03T09:15:00Z,29.4012,-89.0355,10.0,18.229,11111222 
WAVCIS,ioos:station:WAVCIS:CSI16:1,2011-03-03T09:30:00Z,29.4012,-89.0355,10.0,18.236,11111222 
WAVCIS,ioos:station:WAVCIS:CSI16:1,2011-03-03T09:45:00Z,29.4012,-89.0355,10.0,18.228,11111222 
WAVCIS,ioos:station:WAVCIS:CSI16:1,2011-03-03T10:00:00Z,29.4012,-89.0355,10.0,18.232,11111222 
WAVCIS,ioos:station:WAVCIS:CSI16:1,2011-03-03T10:15:00Z,29.4012,-89.0355,10.0,18.237,11111222 
WAVCIS,ioos:station:WAVCIS:CSI16:1,2011-03-03T10:30:00Z,29.4012,-89.0355,10.0,18.22,11111222 
WAVCIS,ioos:station:WAVCIS:CSI16:1,2011-03-03T10:45:00Z,29.4012,-89.0355,10.0,18.23,11111222 
WAVCIS,ioos:station:WAVCIS:CSI16:1,2011-03-03T11:00:00Z,29.4012,-89.0355,10.0,18.227,11111222 
WAVCIS,ioos:station:WAVCIS:CSI16:1,2011-03-03T11:15:00Z,29.4012,-89.0355,10.0,18.209,11111222 
WAVCIS,ioos:station:WAVCIS:CSI16:1,2011-03-03T11:30:00Z,29.4012,-89.0355,10.0,18.189,11111222 
WAVCIS,ioos:station:WAVCIS:CSI16:1,2011-03-03T11:45:00Z,29.4012,-89.0355,10.0,18.193,11111222 
WAVCIS,ioos:station:WAVCIS:CSI16:1,2011-03-03T12:00:00Z,29.4012,-89.0355,10.0,18.173,11111222 
WAVCIS,ioos:station:WAVCIS:CSI16:1,2011-03-03T12:15:00Z,29.4012,-89.0355,10.0,18.152,11111222 
WAVCIS,ioos:station:WAVCIS:CSI16:1,2011-03-03T12:30:00Z,29.4012,-89.0355,10.0,18.132,11111222 
WAVCIS,ioos:station:WAVCIS:CSI16:1,2011-03-03T12:45:00Z,29.4012,-89.0355,10.0,18.132,11111222 
WAVCIS,ioos:station:WAVCIS:CSI16:1,2011-03-03T13:00:00Z,29.4012,-89.0355,10.0,18.13,11111222 
WAVCIS,ioos:station:WAVCIS:CSI16:1,2011-03-03T13:15:00Z,29.4012,-89.0355,10.0,18.131,11111222 
WAVCIS,ioos:station:WAVCIS:CSI16:1,2011-03-03T13:30:00Z,29.4012,-89.0355,10.0,18.126,11111222 
WAVCIS,ioos:station:WAVCIS:CSI16:1,2011-03-03T13:45:00Z,29.4012,-89.0355,10.0,18.127,11111222 
WAVCIS,ioos:station:WAVCIS:CSI16:1,2011-03-03T14:00:00Z,29.4012,-89.0355,10.0,18.092,11111222 
WAVCIS,ioos:station:WAVCIS:CSI16:1,2011-03-03T14:15:00Z,29.4012,-89.0355,10.0,18.099,11111222 
WAVCIS,ioos:station:WAVCIS:CSI16:1,2011-03-03T14:30:00Z,29.4012,-89.0355,10.0,18.113,11111222 
WAVCIS,ioos:station:WAVCIS:CSI16:1,2011-03-03T14:45:00Z,29.4012,-89.0355,10.0,18.119,11111222 